ARIANE 5 DEB [SYLDA] (46115 NORAD) Tracking and Keplerian Element Data

This shows tracking and keplerian element data for the satellite.

Feedback or suggestion? Click here.




ElementValue
Catalog46115
NameARIANE 5 DEB [SYLDA]
Epoch Orbit59
Epoch Day254.91305796
Epoch Year2020
RAAN114.0666
Inclination6.0444
Eccentricity0.726634
Argument of Perigee199.1736
Mean Anonmoly104.4517
Mean Motion2.28339795
Decay Rate3.211E-05
L11 46115U 20056D 20254.91305796 .00003211 00000-0 18230-2 0 9996
L22 46115 6.0444 114.0666 7266340 199.1736 104.4517 2.28339795 599

Live tracking and technical data element details for ARIANE 5 DEB [SYLDA] (NORAD 46115). ARIANE 5 DEB [SYLDA] can be tracked NOW for your location showing map with azimuth and elevation plus other details from your city location.

Track the satellite on the map from your city or location and see movement details for azimuth, elevation, latitude, longitude, range, height, and movement on the map or in text.







IsCatalogInMostPopularTable: catalog: 46115, numindb: 25
Update: records affected: 1



GetName: 46115 ARIANE 5 DEB [SYLDA]

Hit Count: updated at: Wed, 02 Dec 2020 19:07:06 GMT